Aeroporto :
LOGIN :

Iscrizione | Disclaimer

   EN    FR    IT 

 










Sommario :    VFR   VFR Marginale   IFR   IFR Intensivo   IFR Molto Intensivo
Visibilità : 
Base nubi : 
>= 8 km
>= 3000ft
5 / 8 km
1000 / 3000 ft
1500m / 5 km
500 / 1000 ft
800 / 1500m
200 / 500 ft
< 800m
< 200 ft
Simboli :   Temporali  Nebbia  Neve Forte  Precipitazioni Forti  Vento > 20 kt
SIGMETs :   Varie  Temporali  Ghiacco  Turbolenza  Onda orograficha  Ceneri Vulcaniche







- Altitudine del aeroporto : 12 ft
- Codice IATA : NCE
- Carte del aeroporto


LFMN - Nice

ULTIMO METAR :
  • 252200Z 33008KT CAVOK 28/17 Q1021 NOSIG

METARs OBSOLETI :
  • 252130Z 33007KT CAVOK 29/17 Q1021 NOSIG
  • 252100Z 33007KT CAVOK 29/17 Q1021 NOSIG
  • 252030Z 33005KT CAVOK 29/17 Q1020 NOSIG
  • 252000Z 02002KT CAVOK 29/17 Q1020 NOSIG
  • 251930Z 08002KT CAVOK 29/18 Q1020 NOSIG

TAF TAF LFMN
Valido dal 25 a 21 ore il 27 a 03 ore UTC


252000Z 2521/2703 34008KT CAVOK
BECMG 2603/2605 VRB05KT
BECMG 2607/2609 16010KT
BECMG 2615/2617 18008KT
BECMG 2617/2619 VRB05KT
BECMG 2620/2622 34010KT
ATIS : +33 4 93 17 21 16
Nessun NOTAM noto per questo aeroporto.



MetMap, La meteo Aeronautica in un colpo d'occhio ! - Copyright ORBIFLY Dicembre 2007 - Disclaimer

ORBIFLY MET'MAP TEAM :

Programmazione e sviluppo : Alexandra Zaïnal
Concezione e sviluppo : Baudouin d'Aumeries
Co-Programmazione e sviluppo : Marc-Olivier Méhu
Supporto tecnico e logistico : Manuel Goepfert
Aiuto per la traduzione : Arnaldo La Scala

Contatto : metmap@orbifly.com




FONTI E CREDITI :

   NOAA